Regional Weather Roundup
Issued by NWS San Angelo, TX

Home | Current Version | Previous Version | Text Only | Print | Product List | Glossary On
Versions: 1 2 3 4 5 6 7 8 9 10 11 12 13 14 15 16 17 18 19 20 21 22 23 24 25 26 27 28 29 30 31 32 33 34 35 36 37 38 39 40 41 42 43 44 45 46 47 48 49 50
000
ASUS44 KSJT 280510
RWRSJT
WEST CENTRAL TEXAS REGIONAL WEATHER ROUNDUP
NATIONAL WEATHER SERVICE SAN ANGELO TX
1100 PM CST TUE JAN 27 2015

NOTE: "FAIR" INDICATES FEW OR NO CLOUDS BELOW 12,000 FEET WITH NO
SIGNIFICANT WEATHER AND/OR OBSTRUCTIONS TO VISIBILITY.

TXZ049-054-064>066-071>073-076>078-098-099-113-114-127-128-139-140-
154-155-168>170-280600
...LOCATIONS ACROSS WEST CENTRAL TEXAS...

CITY           SKY/WX    TMP DP  RH WIND       PRES   REMARKS
SAN ANGELO     CLEAR     49  38  65 SW5       30.14S
ABILENE        CLEAR     53  39  59 S9        30.13S
DYESS AFB      CLEAR     48  38  68 S6        30.12S
JUNCTION       CLEAR     46  37  71 W3        30.16S
SWEETWATER     CLEAR     54  35  49 S9        30.17S
BROWNWOOD      CLEAR     45  39  81 E3        30.15R
COLEMAN        CLEAR     51  40  66 SW3       30.14S
SONORA         CLEAR     45  37  76 CALM      30.21R
OZONA          FAIR      45  36  70 CALM      30.19S
BRADY          CLEAR     59  34  38 S6        30.14S
$$

TEXAS PANHANDLE/OKLAHOMA PANHANDLE

CITY           SKY/WX    TMP DP  RH WIND       PRES   REMARKS
AMARILLO       CLEAR     44  34  67 S10       30.10S WCI  39
BORGER         CLEAR     56  33  42 S13       30.06S
CANADIAN       CLEAR     49  37  63 SW7       30.04S
DALHART        CLEAR     43  34  70 S10       30.07F WCI  37
DUMAS          CLEAR     46  34  62 SW12      30.06F
GUYMON         NOT AVBL
HEREFORD       CLEAR     50  38  62 SW10      30.12F
PAMPA          CLEAR     50  34  54 S12       30.08S
PERRYTON         N/A     45  35  66 SW9       30.03S
$$

SOUTHERN PANHANDLE/SOUTH PLAINS/ROLLING PLAINS

CITY           SKY/WX    TMP DP  RH WIND       PRES   REMARKS
LUBBOCK        CLEAR     53  33  46 SW12      30.13S
SNYDER         CLEAR    N/A N/A N/A S8        30.15S
CHILDRESS      CLEAR     55  35  47 SW12      30.08F
SEMINOLE       CLEAR     50  35  56 CALM      30.17S
$$

PERMIAN BASIN

CITY           SKY/WX    TMP DP  RH WIND       PRES   REMARKS
MIDLAND        CLEAR     53  37  54 S5        30.16S
ODESSA         CLEAR     55  35  47 SW5       30.17S
WINK           CLEAR     51  34  52 S3        30.15S
$$

FAR WEST/SOUTHWEST MOUNTAINS/TRANS PECOS

CITY           SKY/WX    TMP DP  RH WIND       PRES   REMARKS
ALPINE         CLEAR     51  43  76 SW9       30.30S
DRYDEN           N/A     58  39  49 CALM      30.15S
EL PASO        PTCLDY    53  40  61 S3        30.20F
FORT STOCKTON  CLEAR     54  41  61 S7        30.18S
GUADALUPE PASS CLEAR     54  39  57 SW9       30.27F
MARFA          CLEAR     39  37  93 N3        30.28S
PECOS          CLEAR     49  41  72 S3        30.17R
$$

DALLAS/FORT WORTH METROPLEX

CITY           SKY/WX    TMP DP  RH WIND       PRES   REMARKS
DFW AIRPORT    PTCLDY    58  39  49 S10       30.10S
FTW MEACHAM    CLEAR     61  39  44 CALM      30.11S
DAL-EXECUTIVE  CLEAR     63  38  39 S6        30.11S
GRAND PRAIRIE  CLEAR     60  42  51 S5        30.13S
ADDISON        CLEAR     61  39  44 CALM      30.13R
MESQUITE       CLEAR     54  39  58 CALM      30.12S
LANCASTER      CLEAR     54  39  57 CALM      30.13R
$$

NORTH CENTRAL TEXAS

CITY           SKY/WX    TMP DP  RH WIND       PRES   REMARKS
SHRMAN/DENISON PTCLDY    60  42  51 S12       30.11S
GAINESVILLE    CLEAR     56  37  49 CALM      30.12S
BRIDGEPORT     CLEAR     47  38  72 CALM      30.12F
DENTON         CLEAR     56  38  50 CALM      30.10S
WAXAHACHIE     CLEAR     57  41  54 S5        30.14S
GRANBURY       CLEAR     54  42  62 CALM      30.13S
$$

WESTERN NORTH TEXAS

CITY           SKY/WX    TMP DP  RH WIND       PRES   REMARKS
WICHITA FALLS  CLEAR     54  39  57 S12       30.08S
VERNON         CLEAR     49  35  59 SW7       30.09S
BRECKENRIDGE   CLEAR     56  37  48 CALM      30.11S
COMANCHE       CLEAR     55  41  58 S8        30.14S
$$

CENTRAL AND SOUTH CENTRAL TEXAS

CITY           SKY/WX    TMP DP  RH WIND       PRES   REMARKS
AUSTIN/BERGSTM CLEAR     50  44  80 W3        30.15R
WACO           CLEAR     50  42  74 SW5       30.13S
HILLSBORO      CLEAR     57  43  59 CALM      30.13S
TEMPLE         CLEAR     52  37  58 CALM      30.13S
KILLEEN-GRAY   CLEAR     60  43  54 S7        30.14S
FORT HOOD      CLEAR     59  42  54 MISG      30.14S
GEORGETOWN     CLEAR     48  43  81 CALM      30.15S
LAGO VISTA     FAIR      65  40  39 SE3       30.16R
SAN MARCOS     CLEAR     50  43  76 N5        30.15R
NEW BRAUNFELS  FAIR      51  43  74 NW3       30.14R
RANDOLPH AFB   CLEAR     51  41  69 NW5       30.15R
SAN ANTONIO    PTCLDY    53  41  63 NW6       30.15R
STINSON        CLEAR     51  42  71 CALM      30.14R
PLEASANTON     NOT AVBL
LA GRANGE      CLEAR     53  46  78 CALM      30.13R
GIDDINGS       CLEAR     51  44  76 CALM      30.18S
$$

EAST TEXAS

CITY           SKY/WX    TMP DP  RH WIND       PRES   REMARKS
PARIS          CLEAR     55  36  47 CALM      30.13R
CLARKSVILLE    NOT AVBL
TYLER          CLEAR     52  41  66 SE8       30.13S
LONGVIEW       CLEAR     47  41  80 CALM      30.13S
PALESTINE      PTCLDY    49  43  79 E3        30.15S
NACOGDOCHES    CLEAR     45  39  81 CALM      30.16R
$$

TEXAS HILL COUNTRY AND EDWARDS PLATEAU

CITY           SKY/WX    TMP DP  RH WIND       PRES   REMARKS
LLANO          CLEAR     52  39  62 CALM      30.18R
HORSESHOE BAY  FAIR      52  41  65 S3        30.15R
KERRVILLE      CLEAR     47  41  78 CALM      30.17S
FREDERICKSBRG  CLEAR     46  39  75 CALM      30.17R
ROCKSPRINGS    NOT AVBL
HONDO          CLEAR     47  39  74 N5        30.17R
UVALDE         CLEAR     51  41  67 NE5       30.16R
DEL RIO        CLEAR     53  43  68 SW3       30.14R
$$

SOUTHEAST TEXAS

CITY           SKY/WX    TMP DP  RH WIND       PRES   REMARKS
COLLEGE STN    CLEAR     54  46  74 CALM      30.15R
CALDWELL       CLEAR     57  41  54 CALM      30.18R
CROCKETT       PTCLDY    48  46  93 NE3       30.18R
BRENHAM        CLEAR     53  47  78 CALM      30.16R
HUNTSVILLE     CLEAR     56  45  66 CALM      30.14S
CONROE         CLEAR     47  43  86 CALM      30.15S
HOUSTON BUSH   PTCLDY    52  47  83 CALM      30.15R
HOUSTON HOBBY  PTCLDY    57  48  72 S5        30.15R
PERLAND        CLEAR     53  47  79 CALM      30.17R
WHARTON        CLEAR     50  48  93 CALM      30.16R
$$

THE UPPER TEXAS COAST

CITY           SKY/WX    TMP DP  RH WIND       PRES   REMARKS
ORANGE         FAIR      48  47  95 CALM      30.18R
PORT ARTHUR    CLEAR     50  46  86 CALM      30.16R
GALVESTON      CLEAR     55  55 100 SE6       30.17R
ANGLETON       CLEAR     50  48  93 S3        30.15S
BAY CITY       CLEAR     53  52  97 CALM      30.15S
$$

TEXAS COASTAL BEND, RIO GRANDE PLAINS DEEP SOUTH TEXAS

CITY           SKY/WX    TMP DP  RH WIND       PRES   REMARKS
VICTORIA       CLEAR     56  44  64 S8        30.15S
BEEVILLE       FAIR      58  43  57 SW3       30.15R
ROCKPORT       CLEAR     62  45  53 S7        30.15R
PORT ARANSAS   CLEAR     60  53  76 S9        30.15S
PORT LAVACA    CLEAR     55  48  79 S5        30.15S
CORPUS CHRISTI CLEAR     53  47  79 S7        30.15S
KINGSVILLE NAS CLEAR     54  48  80 S6        30.16R
COTULLA        CLEAR     58  44  60 SE5       30.14S
LAREDO         NOT AVBL
BROWNSVILLE      N/A     56  53  90 S5        30.18S
PORT ISABEL    CLEAR     57  54  89 S6        30.18R
HEBBRONVILLE   PTCLDY    59  38  46 S6        30.17R
MCALLEN        CLEAR     54  49  83 SE6       30.18R
WESLACO        CLEAR     57  51  79 S6        30.18R
FALFURRIAS     CLEAR     57  41  55 S6        30.16R
EDINBURG       CLEAR     59  47  64 S5        30.18R
$$



USA.gov is the U.S. government's official web portal to all federal, state and local government web resources and services.